Location: Newark
(12.4436°N, 0.6167°W)
Time: 19:27:42
(UTC+00:00)

deb Explorer IX - Pass Details

Date: 16 December 2019
Orbit: 548 x 1101 km, 38.8° (Epoch: 26 January)

Event Time Altitude Azimuth Distance (km) Brightness Sun altitude
Rises 12:15:20 0° 255° (WSW) 2,717 ? 54.0°
Reaches altitude 10° 12:17:45 10° 267° (W) 1,856 ? 53.9°
Maximum altitude 12:21:23 27° 327° (NNW) 1,141 ? 53.8°
Drops below altitude 10° 12:25:23 10° 26° (NNE) 2,039 ? 53.6°
Sets 12:28:11 0° 38° (NE) 3,045 ? 53.5°
